User: anonymous   Login
Location: Kuppenheim
(48.8299°N, 8.2568°E)
Time: 20:50:37
(UTC+00:00)
Language:

Cosmos 2237 Rocket - Orbit

View from above orbital plane
View from above orbital plane
View from above satellite
View from above satellite

Ground track
Ground track

The orbit data is extracted from the following two-line orbital elements,

1 22566U 93016B   21266.08995945 -.00000105  00000-0 -29576-4 0  9997
2 22566  71.0101  34.6231 0012771 280.2974  79.6708 14.14979544471784
Epoch (UTC): 23 September 2021 02:09:32
Eccentricity: 0.0012771
inclination: 71.0101°
perigee height: 833 km
apogee height: 851 km
right ascension of ascending node: 34.6231°
argument of perigee: 280.2974°
revolutions per day: 14.14979544
mean anomaly at epoch: 79.6708°
orbit number at epoch: 47178

The dashed part of the orbit path shows where the satellite is in the earth's shadow,  

DLR